STARLINK-35715

Last updated on Mon Dec 15 2025 00:02:12 GMT+0000 (Coordinated Universal Time)

1 66841U 25280W 25348.25003472 -.01573757 00000+0 -12490-1 0 9990 2 66841 69.9939 194.4982 0003576 271.1445 66.1643 15.74213035 3149
UTC large
Height (km)
Speed (km/s)
/
Latitude / Longitude
Inclination (degrees)
Orbital Period (minutes)
Azimuth
Elevation
Range (km)
Doppler Factor

Next 0 passes for location: London (51.5072 / 0.1276)

Sorry there are no passes over London.